Regional Weather Roundup
Issued by NWS

Home | Current Version | Previous Version | Text Only | Print | Product List | Glossary Off
Versions: 1 2 3 4 5 6 7 8 9 10 11 12 13 14 15 16 17 18 19 20 21 22 23 24 25 26 27 28 29 30 31 32 33 34 35 36 37 38 39 40 41 42 43 44 45 46 47 48 49 50

000
ASUS43 KLSX 211307
RWRMO

WEATHER SUMMARY FOR MISSOURI
NATIONAL WEATHER SERVICE SPRINGFIELD MO
800 AM CDT MON AUG 21 2017

NOTE: "FAIR" INDICATES FEW OR NO CLOUDS BELOW 12,000 FEET WITH NO
       SIGNIFICANT WEATHER AND/OR OBSTRUCTIONS TO VISIBILITY.
       CURRENT SKY AND/OR WEATHER CONDITIONS ARE NOT AVAILABLE FOR
       CHILLICOTHE AND FARMINGTON.

MOZ001>031-035>038-043-044-053-054-211400-
...NORTHERN AND WESTERN MISSOURI...

CITY           SKY/WX    TMP DP  RH WIND       PRES   REMARKS
KANSAS CTY INT PTSUNNY   77  72  84 S10       30.06R
KANSAS C DTWN  MOSUNNY   79  73  82 S8        30.06R
LEE`S SUMMIT   PTSUNNY   75  71  87 SW10      30.09R
ST JOSEPH      CLOUDY    75  72  90 NE8       30.07R
CHILLICOTHE      N/A     72  69  90 CALM      30.11R
KIRKSVILLE     CLOUDY    71  66  84 N8        30.13R

$$
MOZ066>068-077>081-088>096-101>105-211400-
...SOUTHWEST MISSOURI...

CITY           SKY/WX    TMP DP  RH WIND       PRES   REMARKS
SPRINGFIELD    MOSUNNY   75  74  96 SE6       30.13R
JOPLIN         SUNNY     78  72  81 S9        30.11R
BRANSON        MOSUNNY   73  73 100 CALM      30.16R

$$
MOZ032>034-039>042-045>050-055>058-069>072-211400-
...CENTRAL MISSOURI...

CITY           SKY/WX    TMP DP  RH WIND       PRES   REMARKS
COLUMBIA       CLOUDY    75  71  87 S5        30.12R
JEFFERSON CITY CLOUDY    76  73  91 SE3       30.11R
ROLLA          SUNNY     77  73  87 S9        30.15R
SEDALIA        SUNNY     78  73  84 SW9       30.11R
WHITEMAN AFB   MOSUNNY   75  75 100 SW12      30.08S
WARRENSBURG    MOSUNNY   73  68  83 S7        30.08S

$$
MOZ051-052-059>065-211400-
...EAST CENTRAL MISSOURI...

CITY           SKY/WX    TMP DP  RH WIND       PRES   REMARKS
ST LOUIS INTL  PTSUNNY   79  74  84 SW9       30.11R
SPIRIT OF STL  SUNNY     78  75  90 W5        30.09S
ST CHARLES     MOSUNNY   77  75  93 CALM      30.09R

$$
MOZ072>076-082>087-097>100-106>115-211400-
...SOUTH CENTRAL AND SOUTHEAST MISSOURI...

CITY           SKY/WX    TMP DP  RH WIND       PRES   REMARKS
CAPE GIRARDEAU SUNNY     75  71  87 CALM      30.13R
FARMINGTON     SUNNY     75  73  93 S5        30.15R
POPLAR BLUFF   SUNNY     76  74  93 CALM      30.12S
WEST PLAINS    MOSUNNY   75  71  87 CALM      30.17R

$$


USA.gov is the U.S. government's official web portal to all federal, state and local government web resources and services.